FENGYUN 1C DEB, 35191

Orbit data source: Space-Track

FENGYUN 1C DEB, 35191 is space debris in SSO originally from a launch on Mon, 10 May 1999 UTC launched from the Taiyaun Space Center, China (TSC). Fengyun 1C debris stems from the Chinese weather satellite Fengyun-1C, which was intentionally destroyed by a Chinese anti-satellite missile in 2007. This event dramatically increased the amount of space debris, with thousands of trackable fragments posing hazards to satellites and human spaceflight. The Fengyun 1C debris cloud has become a focal point in discussions about space sustainability and the need for international regulations to prevent the creation of new debris.

Loading next visibility...
Identifier
35191, 1999-025DNX
Orbit
SSO
Country
Flag of CNCN / PRC
Related business
Manufacturer
Unknown
Mission
Spacecraft
Bus & Motor
Unknown
Mass
Unknown
Launch date (UTC)
1999-05-10 (27 years ago)
Launch vehicle
Unknown
Launch site
Taiyaun Space Center, China (TSC)
Object type
Payload
Rocket body
Debris
Shape & HBR
Unknown shape, 0.1 m
Radar Cross Section
Small (<0.1 m²)

Expand to show TLE details & history
Last TLE update: 1 week ago

TLE from 1 week ago
0 FENGYUN 1C DEB
1 35191U 99025DNX 26154.74623026  .00000268  00000-0  23569-3 0  9996
2 35191  99.0341 136.8925 0103859  98.2353 263.0601 13.91295418903077
Epoch: 2026-06-03T17:54Z
TLE epoch observation values (Epoch: 2026-06-03T17:54:34.294Z)
Latitude
0.00002°
Longitude
-23.95082°
Altitude
936.9 km
Speed
7.378 km/s
True Right ascension
09h 07m 34s
True Declination
0° 00' 00"
Sunlit
Object was in daylight at epoch
Visualization orbit readout
Latitude
Unknown
Longitude
Unknown
Altitude
Unknown
Speed
Unknown
Apparent Right ascension
Unknown
Apparent Declination
Unknown
Sunlit
N/A
Visualization observer readout
Local Sidereal Time
19:51:13
Azimuth
Unknown
Elevation
Unknown
Doppler factor
Unknown
Orbital elements
Apogee altitude
997.118 km
Perigee altitude
845.496 km
Semi-major axis
7,299.444 km
Eccentricity
0.01039
Inclination
99.0341°
RAAN
136.8925°
Arg. of periapsis
98.2353°
True anomaly
261.88062°
Mean anomaly
263.0601°
Eccentric anomaly
262.47016°
Mean motion
3.48023 °/min
Orbital period
103.44 mins
BSTAR
0.00023569
Loading maneuver chart data...
Computing Atmospheric mass density...
Loading historical data...
Loading historical data...
Loading historical data...
Loading historical data...
Loading historical data...
Loading historical data...
Loading historical data...

Documentation

Showing up to 5 results
|